SCP
-0 -0 -0 -0 -0 -0 0 0 0 0 0 0 0 0 0 0 0 0 0 0 0 -0 -0 -0 0 0 0 0 1 1 1 1 0 0 0 0 0 0 0 0 0 0 0
-0 -0 -0 -0 -0 0 0 0 0 0 0 0 0 0 0 0 0 0 0 0 0 0 -0 -0 0 0 0 0 0 1 1 1 0 0 0 0 0 0 0 0 0 0 0
-0 -0 -0 0 0 0 0 0 0 0 0 0 0 0 0 0 0 0 0 0 0 0 0 0 0 0 0 0 0 1 1 1 1 0 0 0 0 0 0 0 0 0 0
0 0 0 0 0 0 0 0 0 0 0 0 0 0 0 0 0 0 0 0 0 0 0 0 0 0 0 0 0 0 1 1 1 0 0 0 0 0 0 0 0 0 0
0 0 0 0 0 0 0 0 0 0 0 0 0 0 0 0 0 0 0 0 0 0 0 0 0 0 0 0 0 0 1 1 1 0 0 0 0 0 0 0 0 0 0
0 0 0 0 0 0 0 0 0 0 0 0 0 0 0 0 0 0 0 0 0 0 0 0 0 0 0 0 0 0 0 1 1 0 0 0 0 0 0 0 0 0 0
0 0 0 0 0 0 0 0 0 0 0 0 0 0 0 0 0 0 0 0 0 0 0 0 0 0 0 0 0 0 0 0 0 0 0 0 0 0 0 0 0 0 0
0 0 0 0 0 0 0 0 0 0 0 0 0 0 0 0 0 0 0 0 0 0 0 0 0 0 0 0 0 0 0 0 0 0 0 0 0 0 0 0 0 0 0
0 0 0 0 0 0 0 0 0 0 0 0 0 0 0 0 0 0 0 0 0 0 0 0 0 0 0 0 0 0 0 0 0 0 0 0 0 0 0 0 0 0 0
0 0 0 0 0 0 0 0 0 0 0 0 0 0 0 0 0 0 0 0 0 0 0 0 0 0 0 0 0 0 0 0 0 0 0 0 0 0 0 0 -0 0 0
0 0 0 0 0 0 0 0 0 0 0 0 0 0 0 0 0 0 0 0 0 0 0 -0 -0 -0 0 0 0 0 0 0 0 0 0 -0 0 0 0 0 0 0 -0
0 0 0 0 0 0 0 0 0 0 0 0 0 0 0 0 0 0 0 0 0 0 0 -0 -0 -0 -0 0 0 0 0 0 0 0 -0 -0 -0 0 0 0 0 0 0
0 0 0 0 0 0 0 0 0 0 0 0 0 0 0 0 0 0 0 0 0 0 0 0 -0 -0 -0 0 0 0 0 0 0 -0 -0 -0 -0 0 0 0 0 0 0
0 0 0 0 0 0 0 0 0 0 0 0 0 0 0 0 0 0 0 0 0 0 0 0 0 -0 -0 -0 0 0 0 0 0 -0 -0 -0 0 0 0 0 0 0 0
0 0 0 0 0 0 0 0 0 0 0 0 0 0 0 0 0 0 0 0 0 0 0 0 0 0 -0 -0 -0 -0 0 0 0 0 0 0 0 0 0 0 0 0 0
0 0 0 0 0 0 0 0 0 0 0 0 0 0 0 0 0 0 0 0 0 0 0 0 0 0 -0 -0 -0 -0 -0 0 0 0 -0 -0 0 0 0 0 0 0 0
0 0 0 0 0 0 0 0 0 0 0 0 0 0 0 0 0 0 0 0 0 0 0 0 0 0 0 0 0 -0 0 0 0 0 0 -0 -0 -0 0 0 0 0 0
0 0 0 0 0 0 0 0 0 0 0 0 0 0 0 0 0 0 0 0 0 0 0 0 0 0 0 0 0 0 0 0 0 0 0 0 -0 -0 -0 0 0 0 0
0 0 0 0 0 0 0 0 0 0 0 0 0 0 0 0 0 0 0 0 0 0 0 0 0 0 0 0 0 0 0 0 0 0 0 0 0 0 0 0 0 0 0
0 0 0 0 0 0 0 0 0 0 0 0 0 0 0 0 0 0 0 0 0 0 0 0 0 0 0 0 0 0 0 0 0 0 0 0 0 0 0 0 0 0 0
0 0 0 0 0 0 0 0 0 0 0 0 0 0 0 0 0 0 0 0 0 0 0 0 0 0 0 0 0 0 0 0 0 0 0 0 0 0 0 0 0 0 -0
0 0 0 0 0 0 0 0 0 0 0 0 0 0 0 0 0 0 0 0 0 0 0 0 0 0 0 0 0 0 0 0 0 0 0 0 0 0 0 0 0 0 -0
0 0 0 0 0 0 0 0 0 0 0 0 0 0 0 0 0 0 0 0 0 0 0 0 0 0 0 0 0 0 0 0 0 0 0 0 0 0 0 0 0 0 0
0 0 0 0 0 0 0 0 0 0 0 0 0 0 0 0 0 0 0 0 0 0 0 0 0 0 0 0 0 0 0 0 0 0 0 0 0 0 0 0 0 0 0
0 0 0 0 0 0 0 0 0 0 0 0 0 0 0 0 0 0 0 0 0 0 0 0 0 0 0 0 0 0 0 0 0 0 0 0 0 0 0 0 0 0 0
0 0 0 0 0 0 0 0 0 0 0 0 0 0 0 0 0 0 0 0 0 0 0 0 0 0 0 0 0 0 0 0 0 0 0 0 0 0 0 0 0 0 0
Wind_Speed
3 3 3 3 3 2 2 2 2 3 4 5 5 6 6 6 6 4 4 12 13 14 17 19 18 19 20 20 20 21 19 19 18 16 15 15 14 13 12 10 9 8 9
4 4 4 4 4 4 3 3 4 3 3 4 4 5 5 4 5 5 4 7 13 15 16 16 17 18 19 20 22 23 22 21 19 17 15 15 15 14 13 11 10 10 10
5 5 5 4 4 3 3 3 3 2 2 3 3 3 4 4 4 5 4 4 6 11 15 16 16 16 17 18 18 22 22 21 20 19 16 15 15 14 13 12 12 11 10
6 4 4 4 3 3 2 3 2 1 2 3 3 3 2 3 4 4 4 4 3 5 9 15 16 14 15 17 19 21 22 21 21 22 21 18 17 15 14 14 14 12 11
5 5 4 4 3 2 3 3 2 1 2 3 3 3 2 3 3 3 3 4 5 5 5 10 13 12 12 14 17 19 21 23 23 24 24 22 20 19 18 16 15 14 13
6 4 4 4 3 2 3 3 3 2 2 2 3 3 3 4 3 3 4 5 6 7 6 6 6 5 10 10 10 14 16 17 22 25 24 24 24 22 18 17 16 15 14
5 5 4 4 4 4 4 3 2 2 2 0 1 3 3 3 4 4 3 4 5 5 5 5 3 2 4 8 7 5 8 5 15 26 25 25 25 21 18 18 17 15 15
5 5 5 5 5 4 4 4 3 2 1 2 1 1 3 4 3 3 3 3 4 4 4 5 5 5 4 3 3 4 6 6 13 15 17 20 20 22 21 20 18 16 15
4 6 7 6 5 5 4 4 5 4 2 2 3 2 1 2 3 3 3 4 4 4 4 4 5 5 5 4 3 4 8 7 11 18 24 22 21 20 20 20 20 19 16
4 5 5 5 5 4 4 3 3 3 3 2 2 3 3 2 2 4 4 4 4 4 3 3 4 5 5 4 4 2 2 6 14 24 25 23 22 21 19 19 18 18 17
3 3 4 4 5 4 4 3 3 4 3 3 3 3 3 3 4 4 4 5 4 3 2 3 3 3 5 4 3 2 4 6 14 25 21 20 20 21 20 19 18 17 16
2 1 2 4 4 4 3 4 4 4 3 3 3 4 4 4 4 4 5 4 5 4 3 3 2 3 4 4 3 3 7 16 19 20 18 17 16 17 18 18 17 16 15
1 2 1 1 2 2 3 2 2 3 3 4 4 4 4 4 3 3 3 3 4 4 3 3 1 2 2 3 5 7 13 18 15 12 13 14 14 14 15 15 15 14 14
1 2 1 2 0 1 2 3 2 2 2 3 5 4 3 3 4 3 3 2 2 3 3 3 2 2 1 2 5 8 8 13 12 12 13 13 12 12 13 13 12 12 12
3 2 1 2 2 1 1 1 2 2 2 3 4 4 3 3 3 3 3 2 2 1 2 3 2 1 0 3 2 3 3 7 8 8 9 10 10 10 10 11 12 12 12
3 3 1 2 2 2 2 1 1 2 2 2 3 4 4 3 4 4 4 3 3 3 2 3 2 2 2 1 1 2 3 3 4 5 7 9 10 11 11 12 13 13 13
3 3 2 2 2 2 2 2 2 2 2 2 3 5 5 5 4 4 4 4 4 3 3 2 1 2 2 1 1 1 1 2 3 2 4 8 10 12 12 13 13 13 13
4 3 2 2 2 2 2 2 2 3 2 2 3 3 3 3 4 3 3 4 5 5 4 3 2 1 0 2 3 1 1 2 2 4 7 8 10 11 12 12 13 13 15
4 4 4 3 2 2 2 2 2 3 4 5 4 2 1 2 3 0 2 3 2 3 4 3 3 1 1 0 2 3 1 1 0 1 4 6 8 9 10 11 12 13 13
4 4 4 3 2 2 0 1 1 5 7 6 5 5 5 4 2 0 2 3 3 2 2 2 1 1 1 1 3 2 2 2 3 3 2 0 2 5 8 9 9 9 11
3 4 3 3 3 3 3 5 6 6 6 5 6 6 6 7 8 6 3 2 1 0 1 2 1 1 0 2 3 1 1 0 1 3 2 2 3 2 2 1 4 7 12
3 4 5 5 5 4 5 7 6 6 6 7 7 6 7 7 7 9 10 10 7 4 2 1 1 1 2 3 2 1 1 0 1 1 2 1 2 3 4 5 8 9 7
5 4 5 6 5 5 5 8 8 6 6 7 6 6 7 7 6 6 9 11 11 11 8 3 3 3 2 3 2 2 3 1 1 1 1 0 1 2 3 5 8 8 9
7 5 4 4 4 4 5 7 8 7 6 6 6 6 6 6 7 7 8 8 8 8 8 5 3 3 2 3 3 2 2 3 2 1 2 1 1 1 1 4 6 7 9
8 9 6 5 5 5 3 6 7 5 5 6 5 6 7 7 8 8 7 6 6 6 6 5 5 4 3 1 2 1 1 1 1 2 3 2 1 2 0 1 3 6 7
6 7 8 7 7 6 5 3 5 4 4 4 4 5 6 6 6 6 6 5 6 6 6 5 5 4 3 3 3 2 0 2 1 1 2 2 2 2 1 1 2 5 6
Wind_Direction
236 239 245 241 230 223 235 253 257 259 259 258 255 252 253 263 266 258 266 275 278 278 277 272 260 251 244 238 226 214 205 202 195 185 181 177 170 169 168 165 165 161 152
235 232 233 241 234 229 226 230 252 259 268 266 263 259 264 273 280 284 285 292 294 292 288 281 270 262 255 246 234 220 206 204 194 181 180 178 173 173 171 169 167 165 157
230 236 226 228 231 236 239 235 250 257 277 277 269 275 284 293 293 292 289 285 293 299 297 291 280 268 259 251 238 223 212 202 192 178 178 179 174 176 173 172 166 168 165
215 222 228 229 241 250 236 229 213 233 281 283 283 284 290 303 301 299 294 293 297 295 294 289 285 277 266 254 243 230 217 209 196 177 178 179 171 176 177 176 169 171 176
216 205 218 224 218 240 240 222 195 209 260 272 283 287 286 297 307 309 302 306 305 301 290 282 286 289 283 269 253 244 228 218 204 180 179 176 172 179 181 175 173 177 181
210 199 211 219 198 222 232 217 207 202 254 289 300 287 267 266 281 289 302 314 315 315 312 302 297 298 300 300 272 250 247 235 210 179 180 177 177 182 172 174 178 180 185
198 188 192 198 202 217 226 218 200 209 243 248 316 312 296 275 266 261 268 299 315 321 323 323 328 324 308 312 310 251 246 211 201 187 187 181 177 169 169 178 176 186 190
195 194 183 200 200 218 228 217 196 188 234 197 152 338 332 334 312 274 263 281 307 323 343 353 352 347 337 322 310 183 178 179 178 183 182 164 162 163 174 180 181 188 191
211 201 195 196 194 209 220 206 198 194 216 213 190 204 269 291 309 302 284 287 309 327 341 359 349 349 350 349 354 180 197 203 172 153 141 155 170 172 177 182 186 187 193
222 219 194 192 197 205 213 208 202 198 194 223 201 216 230 214 271 305 304 298 299 303 326 337 340 353 347 342 355 329 210 193 159 145 154 166 166 176 179 192 194 194 198
193 218 222 210 212 208 206 210 212 202 195 206 193 193 195 206 224 234 285 307 303 281 292 304 320 342 344 340 338 74 102 108 140 144 151 168 180 180 183 195 199 201 205
113 149 262 239 228 228 214 208 216 210 204 209 203 200 189 191 203 210 243 276 286 284 291 288 317 337 347 347 347 140 110 123 131 144 165 186 187 185 190 199 203 206 212
76 88 93 213 219 232 246 232 219 229 217 215 215 211 209 201 189 191 224 261 284 292 303 297 332 311 343 19 34 80 96 110 127 150 176 189 187 187 192 202 207 214 221
117 77 2 272 186 281 270 246 226 231 219 227 232 221 216 209 193 188 196 220 283 296 303 304 319 310 359 57 77 84 90 110 134 158 174 182 183 186 192 200 206 215 227
88 61 338 337 24 3 340 218 222 234 211 216 226 220 212 197 204 202 193 192 230 281 292 290 279 295 25 88 106 104 101 118 142 162 178 180 179 185 196 203 207 210 219
99 109 71 35 40 13 349 321 265 248 240 239 215 209 203 185 214 217 209 204 209 188 233 250 283 343 340 119 151 142 123 128 161 183 187 187 188 195 204 208 208 208 216
84 88 64 19 7 340 308 284 273 314 313 293 255 226 215 188 213 215 206 200 214 191 203 237 259 339 25 175 183 261 330 346 339 308 215 204 203 209 212 213 212 209 214
95 90 58 29 25 359 352 4 334 329 312 353 332 300 261 213 218 236 226 215 212 208 200 222 225 304 73 181 138 160 266 238 238 217 212 214 220 223 220 217 215 214 217
77 62 42 21 19 12 334 337 337 350 45 45 24 354 3 176 176 93 319 282 238 211 203 200 213 168 284 329 110 105 79 338 54 225 218 222 228 236 235 229 220 218 221
61 57 47 33 14 19 33 72 54 58 63 54 52 56 64 80 96 33 321 293 252 219 199 172 181 180 222 29 52 82 95 28 41 60 77 119 236 239 238 237 233 221 219
59 69 61 47 29 24 57 80 80 77 71 57 44 43 48 66 74 66 54 46 182 167 83 110 139 255 249 79 64 32 104 18 62 19 15 60 44 40 46 290 263 237 220
43 40 40 38 32 21 44 73 73 75 72 63 46 32 34 49 71 65 60 57 50 42 27 62 78 16 1 36 44 353 31 32 184 71 5 3 58 54 47 46 23 355 302
18 24 29 21 15 13 42 78 77 68 65 64 60 50 41 25 43 59 58 54 48 42 35 38 70 39 3 5 16 13 358 316 260 352 56 225 357 118 68 42 38 24 15
21 5 5 13 339 12 50 85 79 70 64 56 54 61 63 44 38 59 67 57 43 29 15 21 66 73 36 360 13 6 323 278 277 7 15 153 16 339 73 77 34 38 36
23 359 346 1 339 356 62 109 76 65 58 46 37 41 50 49 41 62 67 56 40 15 4 29 53 68 52 349 320 332 325 331 38 23 12 7 340 291 49 50 34 32 37
40 358 350 353 342 347 36 107 85 64 52 37 26 28 46 54 45 57 72 59 42 7 2 26 28 30 40 40 18 354 4 77 63 359 355 322 294 309 337 263 355 25 20